Regional Weather Roundup
Issued by NWS Upton, NY

Current Version | Previous Version | Text Only | Print | Product List | Glossary On
Versions: 1 2 3 4 5 6 7 8 9 10 11 12 13 14 15 16 17 18 19 20 21 22 23 24 25 26 27 28 29 30 31 32 33 34 35 36 37 38 39 40 41 42 43 44
000 ASUS41 KOKX 280505 RWROKX REGIONAL WEATHER ROUNDUP NATIONAL WEATHER SERVICE NEW YORK NY 1200 AM EST SUN DEC 28 2014 NOTE: "FAIR" INDICATES FEW OR NO CLOUDS BELOW 12,000 FEET WITH NO SIGNIFICANT WEATHER AND/OR OBSTRUCTIONS TO VISIBILITY. NYZ071-072-176-178-NJZ106-104-280600- NEW YORK CITY METRO AREA CITY SKY/WX TMP DP RH WIND PRES REMARKS CENTRAL PARK CLOUDY 50 35 56 VRB7 30.10F LAGUARDIA APRT MOCLDY 49 34 56 SW5 30.07F KENNEDY INTL CLOUDY 46 37 71 SW7 30.09F NEWARK/LIBERTY CLOUDY 45 36 70 CALM 30.08F BRNX BOT. GARD N/A 50 32 50 W6 30.09F TETERBORO CLOUDY 43 34 70 CALM 30.07F $$ NYZ177-179-078>081-280600- LONG ISLAND NEW YORK CITY SKY/WX TMP DP RH WIND PRES REMARKS FARMINGDALE CLOUDY 44 38 79 SW5 30.09F ISLIP MOCLDY 44 41 89 SW6 30.06F SHIRLEY PTCLDY 43 41 93 S3 30.09F WESTHAMPTON CLOUDY 32 28 85 CALM 30.10F FOG MONTAUK POINT N/A 48 41 76 SW9 30.10F $$ NYZ052-065-067-280600- HUDSON VALLEY CITY SKY/WX TMP DP RH WIND PRES REMARKS WHITE PLAINS PTCLDY 46 34 62 CALM 30.05F NEWBURGH CLOUDY 46 34 61 CALM 30.03F MONTGOMERY CLOUDY 43 34 70 SW7 30.02F POUGHKEEPSIE CLOUDY 44 35 70 CALM 30.03F ALBANY CLOUDY 47 34 60 S8 29.95F $$ NJZ001-105-106-008-010-013-015-019>022-104-280600- NEW JERSEY CITY SKY/WX TMP DP RH WIND PRES REMARKS NEWARK/LIBERTY CLOUDY 45 36 70 CALM 30.08F TETERBORO CLOUDY 43 34 70 CALM 30.07F CALDWELL CLOUDY 44 32 62 CALM 30.07F MORRISTOWN CLOUDY 39 34 81 CALM 30.06F SOMERVILLE MOCLDY 34 30 85 CALM 30.06F SUSSEX CLOUDY 38 33 82 SW3 30.04F ANDOVER NOT AVBL TRENTON MOCLDY 41 33 73 SW5 30.08F MILLVILLE PTCLDY 43 39 86 CALM 30.10F ATLANTIC CITY PTCLDY 42 38 85 CALM 30.10F WRIGHTSTOWN MOCLDY 37 36 95 S2 30.06F TOMS RIVER PTCLDY 36 34 93 CALM 30.10F BELMAR MOCLDY 43 36 75 S7 30.09F $$ PAZ047>061-062-071-280600- EASTERN PENNSYLVANIA CITY SKY/WX TMP DP RH WIND PRES REMARKS PHILADELPHIA MOCLDY 42 36 79 CALM 30.09F ALLENTOWN MOCLDY 36 31 82 CALM 30.06F SCRANTON CLOUDY 48 31 51 VRB6G17 29.98F $$ CTZ002-004>006-009-010-012-RIZ004-006-007-MAZ004-011-015-280600- SOUTHERN NEW ENGLAND IN CT CITY SKY/WX TMP DP RH WIND PRES REMARKS BRADLEY INTL CLOUDY 43 34 70 S9 30.03F HARTFORD CLOUDY 43 34 70 S8 30.05F DANBURY CLOUDY 47 30 51 W5 30.06F WTRBRY/OXFORD CLOUDY 45 32 61 S5 30.06F BRIDGEPORT CLOUDY 44 41 89 SW3 30.07F MERIDEN CLOUDY 41 35 79 S7 30.06F NEW HAVEN CLOUDY 47 40 76 SW3 30.07F CHESTER FAIR 43 37 81 SW9 30.06F GROTON PTCLDY 33 32 96 CALM 30.07F FOG WILLIMANTIC PTCLDY 32 29 88 CALM 30.06F IN RI CITY SKY/WX TMP DP RH WIND PRES REMARKS PROVIDENCE PTCLDY 38 32 79 CALM 30.07F BLOCK ISLAND CLEAR 46 39 76 SW10 30.09F WESTERLY CLEAR 34 32 92 CALM 30.10F IN MA CITY SKY/WX TMP DP RH WIND PRES REMARKS BOSTON CLOUDY 43 33 68 SW12 30.03F WORCESTER CLOUDY 42 33 70 SW17 30.00F WESTFIELD CLOUDY 43 33 68 SE8 30.01F PROVINCETOWN MOCLDY 43 37 81 SW10 30.07S NANTUCKET LGT RAIN 42 40 92 SW7 30.08F $$ ANZ330-335-338-340-345-350-353-355-280600- COASTAL MARINE OBSERVATIONS STATION/POSITION TIME SKY/WX TEMP WIND PRES VSBY WAVE AIR SEA DIR/SP/G HT/PER (UTC) (F) (DEG/KT/KT) (MB) (MI) (FT/S) NY HARB ENTRANCE 0500 46 45 220/ 12/ 14 1019.4 3/15 4S FIRE IS 0500 47 N/A 3/14 20S FIRE ISLAND 0400 50 49 1020.4 3/14 23SW MTP 0500 N/A 3/12 HUDSON CANYON 0500 54 55 240/ 16/ 19 1019.7 4/14 EXECUTION ROCKS 0500 47 42 200/ 10/ 12 N/A WESTERN LI SOUND 0500 46 210/ 6/ 8 N/A 0 CENTRAL LI SOUND 0500 45 44 230/ 12/ 14 N/A 1/ 3 EASTERN LI SOUND NOT AVBL ROBBINS REEF 0500 47 N/A $$ >>>>>>>>>>>>>>>>>>>>>>>>>>>> KEY <<<<<<<<<<<<<<<<<<<<<<<<<<< > < > SKY/WX - SKY CONDITION/PRESENT WEATHER < > TMP - TEMPERATURE IN FAHRENHEIT < > DP - DEWPOINT IN FAHRENHEIT < > RH - RELATIVE HUMIDITY IN PERCENT < > WIND - DIRECTION AND SPEED IN MPH < > PRES - MEAN SEA LEVEL PRESSURE IN INCHES OF HG < > WCI - WIND CHILL INDEX < > VSB - VISIBILITY IN MILES < > HX - HEAT INDEX < > TC - TEMPERATURE IN CELSIUS < > VRB - VARIABLE WIND DIRECTION < > < >>>>>>>>>>>>>>>>>>>>>>>>>>>> KEY <<<<<<<<<<<<<<<<<<<<<<<<<<<

USA.gov is the U.S. government's official web portal to all federal, state and local government web resources and services.